Location: Baix
(44.7118°N, 4.7648°E)
Time: 15:13:27
(UTC+00:00)

Cosmos 1464 Rocket - Pass Details

Date: 07 August 2020
Orbit: 952 x 1002 km, 82.9° (Epoch: 22 September)

Event Time Altitude Azimuth Distance (km) Brightness Sun altitude
Exits shadow 00:08:51 75° 125° (SE) 1,016 3.9 -28.7°
Maximum altitude 00:09:09 77° 96° (E) 1,009 3.9 -28.7°
Drops below altitude 10° 00:15:23 10° 11° (N) 2,724 7.3 -28.6°
Sets 00:17:53 0° 10° (N) 3,668 8.3 -28.5°
